This is the latest recevied weather packets stored in our database for station/object N3PB. If no packets are shown the sender has not sent any weather packets the latest 10 day(s).
| Time | Temp. | Humidity | Pressure | Rain* | Wind** | Luminosity | Snow |
|---|---|---|---|---|---|---|---|
| 1778232999 | 2.78° C | 87% | 1015 hPa | 0 mm | - | - | - |
| 1778230596 | 3.33° C | 84% | 1015 hPa | 0 mm | - | - | - |
| 1778229999 | 3.33° C | 83% | 1015 hPa | 0 mm | - | - | - |
| 1778229096 | 3.89° C | 82% | 1015.1 hPa | 0 mm | - | - | - |
| 1778225496 | 5° C | 78% | 1014.7 hPa | 0 mm | - | - | - |
| 1778224896 | 5° C | 78% | 1014.7 hPa | 0 mm | - | - | - |
| 1778224296 | 5.56° C | 77% | 1014.7 hPa | 0 mm | - | - | - |
| 1778223999 | 5.56° C | 77% | 1014.7 hPa | 0 mm | - | - | - |
| 1778223099 | 6.67° C | 75% | 1014.7 hPa | 0 mm | - | - | - |
| 1778222496 | 6.67° C | 75% | 1014.7 hPa | 0 mm | - | - | - |
| 1778221002 | 6.67° C | 74% | 1014.8 hPa | 0 mm | - | - | - |
| 1778220399 | 6.11° C | 75% | 1014.7 hPa | 0 mm | - | - | - |
| 1778220096 | 6.11° C | 77% | 1014.8 hPa | 0 mm | - | - | - |
| 1778218299 | 6.67° C | 80% | 1014.6 hPa | 0 mm | - | - | - |
| 1778217999 | 6.67° C | 80% | 1014.6 hPa | 0 mm | - | - | - |
| 1778217096 | 6.67° C | 78% | 1014.4 hPa | 0 mm | - | - | - |
| 1778216799 | 7.22° C | 78% | 1014.3 hPa | 0 mm | - | - | - |
| 1778216199 | 7.22° C | 77% | 1014.1 hPa | 0 mm | - | - | - |
| 1778215896 | 7.22° C | 78% | 1014 hPa | 0 mm | - | - | - |
| 1778215602 | 7.22° C | 78% | 1014 hPa | 0 mm | - | - | - |
| 1778215296 | 7.22° C | 78% | 1013.9 hPa | 0 mm | - | - | - |
| 1778214999 | 7.22° C | 79% | 1014 hPa | 0 mm | - | - | - |
| 1778214696 | 6.67° C | 79% | 1014 hPa | 0 mm | - | - | - |
| 1778211998 | 7.22° C | 79% | 1013.7 hPa | 0 mm | - | - | - |
| 1778211699 | 7.78° C | 80% | 1013.7 hPa | 0 mm | - | - | - |
* Rain latest hour (hover to see other rain measurements)
** Current wind speed in m/s (hover to see current wind gust speed)